FW7648 Weather Reports


time (UTC)temp
C
wind
direction
speed
KPH
gust
KPH
rain 1hr
cm
rain 24hr
cm
rain mn
cm
humidity
%
barometer
mb
20260510202055 21 331 3.2 9.7 0.00 0.00 0.00 62 1016.4
20260510201601 21 319 1.6 9.7 0.00 0.00 0.00 61 1016.3
20260510201056 21 305 3.2 9.7 0.00 0.00 0.00 61 1016.3
20260510200558 21 323 3.2 9.7 0.00 0.00 0.00 61 1016.4
20260510200121 21 349 3.2 9.7 0.00 0.00 0.00 60 1016.5
20260510195556 20 355 1.6 9.7 0.00 0.00 0.00 62 1016.5
20260510195056 20 355 1.6 12.9 0.00 0.00 0.00 62 1016.6
20260510194608 20 0 3.2 12.9 0.00 0.00 0.00 61 1016.6
20260510194057 20 33 1.6 14.5 0.00 0.00 0.00 62 1016.7
20260510193558 20 349 1.6 14.5 0.00 0.00 0.00 64 1016.7
20260510193113 21 355 3.2 16.1 0.00 0.00 0.00 60 1016.7
20260510192555 21 18 4.8 16.1 0.00 0.00 0.00 61 1016.7
20260510192056 20 5 4.8 12.9 0.00 0.00 0.00 65 1016.7
20260510191558 20 346 4.8 12.9 0.00 0.00 0.00 65 1016.6
20260510191057 20 355 3.2 8.0 0.00 0.00 0.00 66 1016.7
20260510190555 20 5 1.6 9.7 0.00 0.00 0.00 67 1016.7
20260510190105 19 16 3.2 9.7 0.00 0.00 0.00 68 1016.6
20260510185556 19 72 3.2 8.0 0.00 0.00 0.00 67 1016.8
20260510185057 20 360 3.2 9.7 0.00 0.00 0.00 66 1016.7
20260510184605 20 315 3.2 9.7 0.00 0.00 0.00 67 1016.8
20260510184056 20 336 3.2 9.7 0.00 0.00 0.00 71 1016.9
20260510183556 20 355 1.6 9.7 0.00 0.00 0.00 69 1016.9
20260510183108 19 66 1.6 14.5 0.00 0.00 0.00 72 1016.7
20260510182555 20 19 3.2 14.5 0.00 0.00 0.00 71 1016.7
20260510182057 19 329 4.8 11.3 0.00 0.00 0.00 72 1016.6
20260510181603 19 10 3.2 9.7 0.00 0.00 0.00 74 1016.6
20260510181057 19 319 1.6 14.5 0.00 0.00 0.00 73 1016.6
20260510180557 18 340 4.8 14.5 0.00 0.00 0.00 73 1016.4
20260510180105 18 0 0.0 9.7 0.00 0.00 0.00 73 1016.4
20260510175556 18 309 3.2 9.7 0.00 0.00 0.00 73 1016.5
20260510175057 19 360 1.6 11.3 0.00 0.00 0.00 73 1016.5
20260510174605 19 348 3.2 11.3 0.00 0.00 0.00 72 1016.5
20260510174057 19 0 3.2 6.4 0.00 0.00 0.00 72 1016.4
20260510173559 19 345 1.6 8.0 0.00 0.00 0.00 72 1016.2
20260510173102 20 333 3.2 9.7 0.00 0.00 0.00 71 1016.2
20260510172556 19 67 3.2 9.7 0.00 0.00 0.00 72 1016.1
20260510172056 20 327 3.2 11.3 0.00 0.00 0.00 72 1016.2
20260510171558 20 317 3.2 11.3 0.00 0.00 0.00 72 1016.2
20260510171056 20 346 3.2 14.5 0.00 0.00 0.00 73 1016.2
20260510170556 20 302 1.6 14.5 0.00 0.00 0.00 73 1016.2
20260510170104 20 61 4.8 14.5 0.00 0.00 0.00 71 1016.1
20260510165558 20 321 4.8 11.3 0.00 0.00 0.00 72 1016.1
20260510165056 20 315 1.6 11.3 0.00 0.00 0.00 73 1016.2
20260510164611 19 30 1.6 8.0 0.00 0.00 0.00 73 1016.2
20260510164055 18 22 1.6 6.4 0.00 0.00 0.00 73 1016.2
20260510163600 18 59 1.6 6.4 0.00 0.00 0.00 74 1016.3
20260510163059 18 0 0.0 6.4 0.00 0.00 0.00 74 1016.4
20260510162556 18 297 3.2 6.4 0.00 0.00 0.00 72 1016.3
20260510162055 18 54 1.6 6.4 0.00 0.00 0.00 72 1016.2
20260510161600 18 0 0.0 6.4 0.00 0.00 0.00 72 1016.3
20260510161056 18 67 0.0 6.4 0.00 0.00 0.00 72 1016.2
20260510160559 18 331 3.2 6.4 0.00 0.00 0.00 73 1016.1
20260510160100 18 360 1.6 6.4 0.00 0.00 0.00 73 1016.2
20260510155556 18 355 1.6 6.4 0.00 0.00 0.00 72 1016.2
20260510155056 18 338 1.6 8.0 0.00 0.00 0.00 74 1016.1
20260510154559 18 264 1.6 8.0 0.00 0.00 0.00 74 1016.0
20260510154057 18 284 1.6 6.4 0.00 0.00 0.00 74 1016.2
20260510153555 18 355 1.6 6.4 0.00 0.00 0.00 74 1016.0
20260510153056 18 355 1.6 6.4 0.00 0.00 0.00 75 1016.0
20260510152557 17 326 1.6 4.8 0.00 0.00 0.00 74 1015.8
20260510152056 17 0 1.6 4.8 0.00 0.00 0.00 75 1015.8
20260510151556 17 320 0.0 4.8 0.00 0.00 0.00 77 1015.8
20260510151057 17 319 1.6 4.8 0.00 0.00 0.00 76 1015.9
20260510150600 17 319 0.0 3.2 0.00 0.00 0.00 75 1015.9
20260510150123 17 0 0.0 3.2 0.00 0.00 0.00 74 1015.5
20260510145600 17 0 0.0 4.8 0.00 0.00 0.00 73 1015.3
20260510145056 17 319 1.6 4.8 0.00 0.00 0.00 74 1015.3
20260510144620 17 319 0.0 3.2 0.00 0.00 0.00 73 1015.2
20260510144058 17 0 0.0 3.2 0.00 0.00 0.00 72 1014.9
20260510143557 17 0 0.0 8.0 0.00 0.00 0.00 73 1015.0
20260510143058 18 0 1.6 8.0 0.00 0.00 0.00 73 1015.5
20260510142556 18 0 1.6 4.8 0.00 0.00 0.00 72 1015.4
20260510142056 18 0 1.6 9.7 0.00 0.00 0.00 73 1015.6
20260510141603 18 240 1.6 9.7 0.00 0.00 0.00 71 1015.6
20260510141056 18 276 3.2 11.3 0.00 0.00 0.00 72 1015.7
20260510140555 18 292 3.2 11.3 0.00 0.00 0.00 72 1015.5
20260510135556 18 274 1.6 12.9 0.00 0.00 0.00 72 1015.3
20260510135056 18 278 1.6 8.0 0.00 0.00 0.00 72 1015.3
20260510134607 18 284 1.6 8.0 0.00 0.00 0.00 74 1015.3
20260510134056 17 260 1.6 6.4 0.00 0.00 0.00 74 1015.1
20260510133557 17 0 1.6 4.8 0.00 0.00 0.00 74 1015.2
20260510133056 17 0 0.0 6.4 0.00 0.00 0.00 77 1015.2
20260510132556 17 0 1.6 6.4 0.00 0.00 0.00 77 1015.3
20260510132059 16 134 3.2 6.4 0.00 0.00 0.00 77 1015.3
20260510131601 16 124 0.0 6.4 0.00 0.00 0.00 77 1015.2
20260510131056 16 0 1.6 6.4 0.00 0.00 0.00 78 1015.0
20260510130556 16 0 0.0 3.2 0.00 0.00 0.00 78 1014.9
20260510130058 16 0 0.0 6.4 0.00 0.00 0.00 78 1015.0
20260510125558 16 176 0.0 6.4 0.00 0.00 0.00 78 1015.0
20260510125056 16 159 0.0 6.4 0.00 0.00 0.00 78 1015.1
20260510124556 16 0 0.0 3.2 0.00 0.00 0.00 78 1015.0
20260510124057 16 139 0.0 3.2 0.00 0.00 0.00 78 1014.9
20260510123557 16 0 0.0 3.2 0.00 0.00 0.00 79 1014.9
20260510123058 15 0 0.0 3.2 0.00 0.00 0.00 80 1014.8
20260510122556 15 0 0.0 3.2 0.00 0.00 0.00 80 1014.8
20260510122057 15 0 0.0 3.2 0.00 0.00 0.00 81 1014.7
20260510121606 15 0 0.0 3.2 0.00 0.00 0.00 81 1014.7
20260510121058 15 0 0.0 3.2 0.00 0.00 0.00 81 1014.7
20260510120557 15 140 0.0 3.2 0.00 0.00 0.00 82 1014.7
20260510120057 14 140 0.0 3.2 0.00 0.00 0.00 83 1014.6
20260510115556 13 140 0.0 3.2 0.00 0.00 0.00 84 1014.4
20260510115056 13 0 0.0 1.6 0.00 0.00 0.00 85 1014.5
20260510114614 13 0 0.0 3.2 0.00 0.00 0.00 85 1014.3
20260510114056 13 140 0.0 3.2 0.00 0.00 0.00 86 1014.2
20260510113556 13 140 0.0 3.2 0.00 0.00 0.00 87 1014.2
20260510113059 13 0 0.0 1.6 0.00 0.00 0.00 89 1014.2
20260510112556 12 0 0.0 0.0 0.00 0.00 0.00 90 1014.0
20260510112056 12 0 0.0 0.0 0.00 0.00 0.00 90 1014.0
20260510111601 11 0 0.0 0.0 0.00 0.00 0.00 90 1014.0
20260510111056 11 0 0.0 0.0 0.00 0.00 0.00 91 1013.8
20260510110556 11 0 0.0 1.6 0.00 0.00 0.00 91 1013.8
20260510110054 11 0 0.0 1.6 0.00 0.00 0.00 91 1013.7
20260510105556 11 130 0.0 1.6 0.00 0.00 0.00 91 1013.5
20260510105057 11 0 0.0 0.0 0.00 0.00 0.00 91 1013.6
20260510104615 11 0 0.0 1.6 0.00 0.00 0.00 91 1013.5
20260510104056 11 0 0.0 1.6 0.00 0.00 0.00 91 1013.4
20260510103556 11 0 0.0 1.6 0.00 0.00 0.00 91 1013.4
20260510103054 10 0 0.0 1.6 0.00 0.00 0.00 91 1013.4
20260510102556 10 130 0.0 1.6 0.00 0.00 0.00 91 1013.3
20260510102055 10 0 0.0 0.0 0.00 0.00 0.00 91 1013.3
20260510101602 10 0 0.0 0.0 0.00 0.00 0.00 91 1013.1
20260510101057 10 0 0.0 0.0 0.00 0.00 0.00 91 1013.1
20260510100556 10 0 0.0 0.0 0.00 0.00 0.00 91 1013.1
20260510095556 10 0 0.0 0.0 0.00 0.00 0.00 91 1013.1
20260510095055 10 0 0.0 0.0 0.00 0.00 0.00 91 1013.0
20260510094604 10 0 0.0 0.0 0.00 0.00 0.00 91 1013.0
20260510094056 10 0 0.0 1.6 0.00 0.00 0.00 91 1012.7
20260510093556 10 0 0.0 1.6 0.00 0.00 0.00 90 1012.8
20260510093058 10 0 0.0 1.6 0.00 0.00 0.00 90 1012.7
20260510092559 10 0 0.0 1.6 0.00 0.00 0.00 90 1012.7
20260510092056 11 0 0.0 3.2 0.00 0.00 0.00 90 1012.6
20260510091558 11 0 0.0 3.2 0.00 0.00 0.00 90 1012.5
20260510091056 11 0 0.0 3.2 0.00 0.00 0.00 90 1012.5
20260510090556 11 0 0.0 3.2 0.00 0.00 0.00 90 1012.4
20260510090056 11 0 0.0 3.2 0.00 0.00 0.00 90 1012.4
20260510085558 11 0 0.0 0.0 0.00 0.00 0.00 89 1012.4
20260510085056 11 0 0.0 0.0 0.00 0.00 0.00 89 1012.3
20260510084556 11 0 0.0 0.0 0.00 0.00 0.00 90 1012.3
20260510084056 11 0 0.0 0.0 0.00 0.00 0.00 89 1012.2
20260510083557 11 0 0.0 0.0 0.00 0.00 0.00 89 1012.1
20260510083055 11 0 0.0 0.0 0.00 0.00 0.00 89 1012.1
20260510082555 11 0 0.0 0.0 0.00 0.00 0.00 89 1012.1
20260510082056 11 0 0.0 0.0 0.00 0.00 0.00 89 1012.2
20260510081556 11 0 0.0 0.0 0.00 0.00 0.00 89 1012.0
20260510081056 11 0 0.0 0.0 0.00 0.00 0.00 88 1011.9
20260510080556 11 0 0.0 0.0 0.00 0.00 0.00 88 1012.0
20260510080100 11 0 0.0 1.6 0.00 0.00 0.00 88 1011.9
20260510075557 11 0 0.0 1.6 0.00 0.00 0.00 88 1011.9
20260510075056 12 0 0.0 1.6 0.00 0.00 0.00 87 1011.9
20260510074605 12 0 0.0 0.0 0.00 0.00 0.00 87 1011.9
20260510074055 12 0 0.0 1.6 0.00 0.00 0.00 86 1011.8
20260510073556 12 0 0.0 1.6 0.00 0.00 0.00 85 1011.8
20260510073055 12 0 0.0 1.6 0.00 0.00 0.00 84 1011.7
20260510072556 12 0 0.0 1.6 0.00 0.00 0.00 84 1011.7
20260510072056 13 0 0.0 1.6 0.00 0.00 0.00 84 1011.9
20260510071557 13 0 0.0 1.6 0.00 0.00 0.00 84 1011.9
20260510071056 13 0 0.0 1.6 0.00 0.00 0.00 84 1011.7
20260510070556 13 0 0.0 1.6 0.00 0.00 0.00 83 1011.8
20260510070109 13 0 0.0 1.6 0.00 0.00 0.00 82 1011.8
20260510065556 13 0 0.0 1.6 0.00 0.00 0.00 82 1011.7
20260510065056 13 0 0.0 1.6 0.00 0.00 0.00 82 1011.7
20260510064600 14 0 0.0 1.6 0.00 0.00 0.00 80 1011.8
20260510064056 14 0 0.0 1.6 0.00 0.00 0.00 80 1011.7
20260510063556 15 0 0.0 1.6 0.00 0.00 0.00 80 1011.7
20260510063100 15 0 0.0 1.6 0.00 0.00 0.00 79 1011.8
20260510062559 15 130 0.0 3.2 0.00 0.00 0.00 79 1011.8
20260510062056 15 0 0.0 3.2 0.00 0.00 0.00 79 1011.8
20260510061559 15 158 0.0 3.2 0.00 0.00 0.00 79 1011.7
20260510061057 15 0 0.0 4.8 0.00 0.00 0.00 79 1011.8
20260510060557 15 0 0.0 4.8 0.00 0.00 0.00 79 1011.8
20260510055557 15 0 0.0 4.8 0.00 0.00 0.00 78 1011.9
20260510055057 15 139 0.0 4.8 0.00 0.00 0.00 78 1011.9
20260510054605 15 139 0.0 4.8 0.00 0.00 0.00 78 1011.8
20260510054057 15 139 0.0 4.8 0.00 0.00 0.00 78 1011.9
20260510053559 15 139 0.0 3.2 0.00 0.00 0.00 78 1011.9
20260510053059 15 0 0.0 3.2 0.00 0.00 0.00 78 1012.0
20260510052557 15 139 0.0 4.8 0.00 0.00 0.00 78 1011.9
20260510052056 15 139 0.0 4.8 0.00 0.00 0.00 78 1012.0
20260510051604 15 139 1.6 3.2 0.00 0.00 0.00 78 1012.0
20260510051100 15 0 0.0 3.2 0.00 0.00 0.00 78 1012.1
20260510050557 15 139 0.0 3.2 0.00 0.00 0.00 78 1012.1
20260510050100 15 134 0.0 3.2 0.00 0.00 0.00 77 1012.1
20260510045559 15 134 0.0 4.8 0.00 0.00 0.00 77 1012.1
20260510045056 15 134 1.6 4.8 0.00 0.00 0.00 77 1012.1
20260510044613 15 0 0.0 3.2 0.00 0.00 0.00 77 1012.2
20260510044100 15 148 0.0 3.2 0.00 0.00 0.00 77 1012.1
20260510043557 15 0 0.0 3.2 0.00 0.00 0.00 77 1012.2
20260510043111 16 150 0.0 3.2 0.00 0.00 0.00 77 1012.1
20260510042558 16 0 0.0 4.8 0.00 0.00 0.00 77 1012.2
20260510042059 16 0 0.0 4.8 0.00 0.00 0.00 77 1012.1
20260510041612 16 0 0.0 3.2 0.00 0.00 0.00 76 1012.1
20260510041057 16 150 0.0 3.2 0.00 0.00 0.00 76 1012.1
20260510040558 16 165 0.0 3.2 0.00 0.00 0.00 76 1012.0
20260510035557 16 156 0.0 3.2 0.00 0.00 0.00 76 1012.1
20260510035059 16 0 0.0 3.2 0.00 0.00 0.00 76 1012.2
20260510034600 16 113 0.0 3.2 0.00 0.00 0.00 76 1012.1
20260510034058 16 0 0.0 3.2 0.00 0.00 0.00 76 1012.1
20260510033601 16 0 0.0 3.2 0.00 0.00 0.00 75 1012.2
20260510033128 16 0 0.0 3.2 0.00 0.00 0.00 75 1012.2
20260510032600 16 0 0.0 4.8 0.00 0.00 0.00 75 1012.1
20260510032057 16 140 0.0 4.8 0.00 0.00 0.00 75 1012.2
20260510031630 16 0 0.0 4.8 0.00 0.00 0.00 75 1012.0
20260510031058 16 0 1.6 4.8 0.00 0.00 0.00 75 1012.0
20260510030557 16 0 0.0 3.2 0.00 0.00 0.00 75 1012.0
20260510025557 16 148 0.0 3.2 0.00 0.00 0.00 75 1011.9
20260510025058 16 0 0.0 1.6 0.00 0.00 0.00 74 1011.9
20260510024557 16 0 0.0 1.6 0.00 0.00 0.00 74 1011.8
20260510024101 16 0 0.0 1.6 0.00 0.00 0.00 73 1011.7
20260510023557 17 0 0.0 4.8 0.00 0.00 0.00 73 1011.6
20260510023055 17 0 0.0 4.8 0.00 0.00 0.00 73 1011.7
20260510022557 17 0 0.0 4.8 0.00 0.00 0.00 72 1011.5
20260510022058 17 0 0.0 4.8 0.00 0.00 0.00 72 1011.5
20260510021559 17 0 0.0 6.4 0.00 0.00 0.00 72 1011.4
20260510021056 17 0 0.0 6.4 0.00 0.00 0.00 72 1011.4
20260510020557 17 167 0.0 4.8 0.00 0.00 0.00 72 1011.4
20260510020058 17 0 0.0 4.8 0.00 0.00 0.00 71 1011.4
20260510015600 17 0 0.0 4.8 0.00 0.00 0.00 71 1011.3
20260510015056 17 167 0.0 1.6 0.00 0.00 0.00 71 1011.2
20260510014608 17 0 0.0 4.8 0.00 0.00 0.00 70 1011.2
20260510014058 17 0 0.0 6.4 0.00 0.00 0.00 70 1011.2
20260510013558 17 0 1.6 6.4 0.00 0.00 0.00 70 1011.0
20260510013057 17 0 0.0 4.8 0.00 0.00 0.00 70 1011.0
20260510012557 17 0 0.0 9.7 0.00 0.00 0.00 69 1010.9
20260510012059 17 0 0.0 9.7 0.00 0.00 0.00 69 1010.8
20260510011601 17 200 0.0 4.8 0.00 0.00 0.00 69 1010.6
20260510011101 18 0 0.0 4.8 0.00 0.00 0.00 69 1010.5
20260510010557 18 188 0.0 4.8 0.00 0.00 0.00 68 1010.3
20260510010103 18 0 0.0 4.8 0.00 0.00 0.00 68 1010.4
20260510005557 18 0 0.0 6.4 0.00 0.00 0.00 67 1010.5
20260510005056 18 164 0.0 6.4 0.00 0.00 0.00 67 1010.2
20260510004600 18 220 0.0 8.0 0.00 0.00 0.00 66 1010.1
20260510004056 18 157 1.6 9.7 0.00 0.00 0.00 66 1010.1
20260510003558 18 0 0.0 9.7 0.00 0.00 0.00 66 1010.1
20260510003101 19 178 1.6 6.4 0.00 0.00 0.00 66 1009.9
20260510002557 19 120 1.6 6.4 0.00 0.00 0.00 65 1009.9
20260510002057 19 175 0.0 9.7 0.00 0.00 0.00 65 1009.7
20260510001557 19 222 1.6 9.7 0.00 0.00 0.00 64 1009.8
20260510001137 20 195 1.6 9.7 0.00 0.00 0.00 64 1009.8
20260510000601 20 217 0.0 11.3 0.00 0.00 0.00 63 1009.8
20260510000100 20 281 1.6 11.3 0.00 0.00 0.00 63 1009.7
20260509235559 20 145 1.6 11.3 0.00 0.00 0.00 62 1009.6
20260509235057 20 146 1.6 14.5 0.00 0.00 0.00 62 1009.5
20260509234608 20 161 3.2 14.5 0.00 0.00 0.00 61 1009.6
20260509234057 21 141 4.8 14.5 0.00 0.00 0.00 60 1009.5
20260509233559 21 214 3.2 11.3 0.00 0.00 0.00 60 1009.5
20260509233057 21 209 1.6 11.3 0.00 0.00 0.00 60 1009.4
20260509232557 21 267 3.2 9.7 0.00 0.00 0.00 60 1009.4
20260509232057 21 275 1.6 6.4 0.00 0.00 0.00 59 1009.3
20260509231559 21 184 0.0 8.0 0.00 0.00 0.00 59 1009.3
20260509231057 21 218 1.6 8.0 0.00 0.00 0.00 59 1009.3
20260509230556 21 217 1.6 6.4 0.00 0.00 0.00 60 1009.2
20260509230057 21 264 0.0 11.3 0.00 0.00 0.00 59 1009.2
20260509225557 21 202 3.2 11.3 0.00 0.00 0.00 59 1009.3
20260509225057 21 242 1.6 9.7 0.00 0.00 0.00 59 1009.4
20260509224557 21 281 3.2 9.7 0.00 0.00 0.00 59 1009.4
20260509224058 21 294 3.2 11.3 0.00 0.00 0.00 58 1009.4
20260509223557 21 253 3.2 11.3 0.00 0.00 0.00 60 1009.4
20260509223059 21 291 1.6 9.7 0.00 0.00 0.00 58 1009.5
20260509222559 21 0 1.6 9.7 0.00 0.00 0.00 60 1009.6
20260509222057 21 265 1.6 6.4 0.00 0.00 0.00 60 1009.6
20260509221557 21 293 1.6 6.4 0.00 0.00 0.00 60 1009.7
20260509221057 21 0 1.6 8.0 0.00 0.00 0.00 60 1009.7
20260509220556 21 273 1.6 12.9 0.00 0.00 0.00 58 1009.6
20260509215557 22 0 3.2 11.3 0.00 0.00 0.00 57 1009.7
20260509215057 22 267 4.8 11.3 0.00 0.00 0.00 57 1009.7
20260509214555 22 250 3.2 16.1 0.00 0.00 0.00 58 1009.9
20260509214057 22 271 1.6 16.1 0.00 0.00 0.00 57 1009.9
20260509213557 22 247 6.4 16.1 0.00 0.00 0.00 56 1009.8
20260509213058 22 344 3.2 12.9 0.00 0.00 0.00 58 1009.8
20260509212557 22 275 3.2 12.9 0.00 0.00 0.00 58 1009.8
20260509212057 22 262 4.8 12.9 0.00 0.00 0.00 57 1009.7
20260509211604 22 215 3.2 19.3 0.00 0.00 0.00 59 1009.8
20260509211057 22 261 1.6 19.3 0.00 0.00 0.00 61 1009.8
20260509210557 21 216 6.4 19.3 0.00 0.00 0.00 58 1009.7
20260509210104 22 286 3.2 11.3 0.00 0.00 0.00 56 1009.7
20260509205558 22 185 1.6 11.3 0.00 0.00 0.00 60 1009.8
20260509205101 22 181 3.2 12.9 0.00 0.00 0.00 60 1009.7
20260509204604 21 266 4.8 12.9 0.00 0.00 0.00 60 1009.8
20260509204058 22 0 3.2 11.3 0.00 0.00 0.00 60 1009.8
20260509203556 22 190 1.6 11.3 0.00 0.00 0.00 64 1009.8
20260509203101 21 202 3.2 11.3 0.00 0.00 0.00 60 1009.8
20260509202556 22 212 4.8 11.3 0.00 0.00 0.00 61 1009.8